Regional Weather Roundup
Issued by NWS New Orleans/Baton Rouge, LA

Home | Current Version | Previous Version | Text Only | Print | Product List | Glossary Off
Versions: 1 2 3 4 5 6 7 8 9 10 11 12 13 14 15 16 17 18 19 20 21 22 23 24 25 26 27 28 29 30 31 32 33 34 35 36 37 38 39 40 41 42 43 44 45 46 47 48 49 50

873
ASUS44 KLIX 230705
RWRLIX
NEW ORLEANS REGIONAL WEATHER ROUNDUP
NATIONAL WEATHER SERVICE NEW ORLEANS LA
200 AM CDT WED APR 23 2014

NOTE: "FAIR" INDICATES FEW OR NO CLOUDS BELOW 12,000 FEET WITH NO
      SIGNIFICANT WEATHER AND/OR OBSTRUCTIONS TO VISIBILITY.
      SKY/WX - SKY CONDITION AND SIGNIFICANT WEATHER.
      TMP - AIR TEMPERATURE.     DP    - DEWPOINT TEMPERATURE.
      RH  - RELATIVE HUMIDITY.   PRES  - PRESSURE.
      HI  - HEAT INDEX.          WCI   - WIND CHILL INDEX.

*  THESE STATIONS ARE NOT NWS OR FAA STATIONS AND ARE NOT UNDER
   NWS QUALITY CONTROL.

LAZ038-040-048-061>063-065>067-069-230800-
SOUTHEAST LOUISIANA

CITY           SKY/WX    TMP DP  RH WIND       PRES   REMARKS
N.O. AUDUBON   NOT AVBL
N.O. INTL ARPT CLEAR     65  63  93 CALM      29.93S
N.O. LAKEFRONT CLEAR     68  65  90 N5        29.93S
N.O. DOWNTOWN*   N/A     70  61  73 CALM      29.93S
SLIDELL        CLEAR     60  57  89 CALM      29.92S
BATON ROUGE    CLEAR     63  59  87 CALM      29.94S
BOOTHVILLE     CLEAR     67  66  97 W6        29.93S FOG
BELLE CHASSE   CLEAR     61  58  90 CALM      29.92S
BOGALUSA*        N/A     59  56  90 CALM      29.94F
GALLIANO*      FOG       61  60  96 NW3       29.93S VSB 1/4
NEW ROADS*       N/A     60  58  95 W5        29.95R
GONZALES*        N/A     60  60 100 CALM      29.93S
HAMMOND*       CLEAR     61  59  94 N6        29.94F
HOUMA*         FOG       64  63  94 CALM      29.94S VSB 1/4
PORT FOURCHON* MOSUNNY   70  68  94 W6        29.95S

$$

MSZ070-080>082-230800-
SOUTHERN MISSISSIPPI

CITY           SKY/WX    TMP DP  RH WIND       PRES   REMARKS
MCCOMB         CLEAR     59  57  93 NW5       29.94F
GULFPORT       CLEAR     65  61  87 CALM      29.91S FOG
BILOXI         CLEAR     65  65  97 N2        29.91S
PASCAGOULA     CLEAR     61  61 100 CALM      29.91S FOG

$$

COASTAL OBSERVATIONS
LAKE AND NEARSHORE STATIONS

STATION/POSITION TIME  TEMP    WIND        PRES    WAVE
                       AIR SEA DIR/SP/G            HT/PER
                 (UTC) (F)     (DEG/KT/KT) (MB)    (FT/S)
PASCAGOULA       0700   66     360/  3/  5 1012.1
WAVELAND YACHT   0700   66 72  310/  4/  6 1012.3
GRAND ISLE       0700   71 72  290/  9/  9 1014.0
SOUTHWEST PASS   0700   68 60  280/ 13/ 15 1013.7
NEW CANAL        0700   69 69  300/  1/  2 1013.7
SHELL BEACH      0700   69 67  350/  5/  6 1013.1

OFFSHORE STATIONS

STATION/POSITION TIME  TEMP    WIND        PRES    WAVE
                       AIR SEA DIR/SP/G            HT/PER
                 (UTC) (F)     (DEG/KT/KT) (MB)    (FT/S)
64 S DAUPHIN ISL 0647   69 69  250/ 12/ 14 1012.8

$$




USA.gov is the U.S. government's official web portal to all federal, state and local government web resources and services.